Terminal Aerodrome Forecast
Issued by NWS Boise, ID

Home | Current Version | Previous Version | Text Only | Print | Product List | Glossary On
Versions: 1 2 3 4 5 6 7 8 9 10 11 12 13 14 15 16 17 18 19 20 21 22 23 24 25 26 27 28 29 30 31 32 33 34 35 36 37 38 39 40 41
000
FTUS45 KBOI 271747
TAFBOI
TAF
KBOI 271747Z 2718/2818 VRB05KT P6SM SCT200
     FM272000 32011KT P6SM VCTS BKN100CB
      TEMPO 2801/2804 VRB15G30KT -TSRA BKN070CB
     FM280400 VRB05KT P6SM FEW100=

USA.gov is the U.S. government's official web portal to all federal, state and local government web resources and services.